Location: Newark
(43.6583°N, 1.6617°E)
Time: 02:28:36
(UTC+00:00)

Transit 4A - Pass Details

Date: 25 August 2019
Orbit: 867 x 978 km, 66.8° (Epoch: 23 October)

Event Time Altitude Azimuth Distance (km) Brightness Sun altitude
Rises 16:31:47 0° 187° (S) 3,649 11.2 22.5°
Reaches altitude 10° 16:34:27 10° 181° (S) 2,713 10.5 22.0°
Maximum altitude 16:40:23 43° 112° (ESE) 1,349 8.6 20.9°
Drops below altitude 10° 16:46:20 10° 43° (NE) 2,725 10.0 19.8°
Sets 16:49:01 0° 37° (NE) 3,668 10.6 19.4°
